,,Stat5,,Stat1,,Stat2,,Stat3,,Stat4,,Wind1,,Wind1,
time,status,PA1M_AVG,status,PR1M_SUM,status,RH1M_AVG,status,SR1M_AVG,status,TA1M_AVG,status,W1dAve1m,status,W1sAve1m,
2000-11-08, 00:00:00,VALID,917.45,VALID,0,VALID,98.7134,VALID,0.0679233,VALID,19.3528,VALID,175,VALID,0.351985,
2000-11-08, 00:01:00,VALID,917.437,VALID,0,VALID,98.6969,VALID,0.0679233,VALID,19.3434,VALID,175,VALID,0.39147,
2000-11-08, 00:02:00,VALID,917.426,VALID,0,VALID,98.7108,VALID,0.0339617,VALID,19.3307,VALID,175,VALID,0.185202,
2000-11-08, 00:03:00,VALID,917.421,VALID,0,VALID,98.7032,VALID,-0.0339617,VALID,19.3252,VALID,175,VALID,0.105674,
2000-11-08, 00:04:00,VALID,917.397,VALID,0,VALID,98.7261,VALID,-0.0679233,VALID,19.3257,VALID,188,VALID,0.113064,
2000-11-08, 00:05:00,VALID,917.399,VALID,0,VALID,98.7388,VALID,-0.0169808,VALID,19.322,VALID,192,VALID,0,
2000-11-08, 00:06:00,VALID,917.382,VALID,0,VALID,98.7287,VALID,-0.0339617,VALID,19.3252,VALID,192,VALID,0,
2000-11-08, 00:07:00,VALID,917.369,VALID,0,VALID,98.7045,VALID,-0.0169808,VALID,19.3153,VALID,192,VALID,0,
2000-11-08, 00:08:00,VALID,917.362,VALID,0,VALID,98.6613,VALID,-0.0849042,VALID,19.3026,VALID,190,VALID,0,
2000-11-08, 00:09:00,VALID,917.372,VALID,0,VALID,98.6282,VALID,-0.0679233,VALID,19.2834,VALID,160,VALID,0.329814,
2000-11-08, 00:10:00,VALID,917.37,VALID,0,VALID,98.5951,VALID,-0.0509425,VALID,19.2775,VALID,160,VALID,0.475361,
2000-11-08, 00:11:00,VALID,917.375,VALID,0,VALID,98.6142,VALID,-0.0509425,VALID,19.2608,VALID,172,VALID,0.347545,
2000-11-08, 00:12:00,VALID,917.37,VALID,0,VALID,98.6473,VALID,-0.0339617,VALID,19.2576,VALID,175,VALID,0.376478,
2000-11-08, 00:13:00,VALID,917.37,VALID,0,VALID,98.6829,VALID,0,VALID,19.2646,VALID,187,VALID,0.507612,
2000-11-08, 00:14:00,VALID,917.367,VALID,0,VALID,98.7248,VALID,-0.0679233,VALID,19.2678,VALID,219,VALID,0.514323,
2000-11-08, 00:15:00,VALID,917.342,VALID,0,VALID,98.8062,VALID,-0.0849042,VALID,19.2874,VALID,224,VALID,0.910979,
2000-11-08, 00:16:00,VALID,917.324,VALID,0,VALID,98.8609,VALID,-0.0509425,VALID,19.3095,VALID,216,VALID,0.917752,
2000-11-08, 00:17:00,VALID,917.306,VALID,0,VALID,98.8749,VALID,-0.0679233,VALID,19.3227,VALID,213,VALID,0.880425,
2000-11-08, 00:18:00,VALID,917.295,VALID,0,VALID,98.8876,VALID,0.0169808,VALID,19.3347,VALID,216,VALID,0.677284,
2000-11-08, 00:19:00,VALID,917.279,VALID,0,VALID,98.9016,VALID,0.0509425,VALID,19.321,VALID,211,VALID,0.501339,
2000-11-08, 00:20:00,VALID,917.248,VALID,0,VALID,98.9219,VALID,0.0339617,VALID,19.3242,VALID,207,VALID,0.166385,
2000-11-08, 00:21:00,VALID,917.224,VALID,0,VALID,98.9423,VALID,0.0339617,VALID,19.3178,VALID,207,VALID,0,
2000-11-08, 00:22:00,VALID,917.203,VALID,0,VALID,98.9537,VALID,0.0169808,VALID,19.3217,VALID,206,VALID,0,
2000-11-08, 00:23:00,VALID,917.183,VALID,0,VALID,98.969,VALID,0,VALID,19.3081,VALID,191,VALID,0,
2000-11-08, 00:24:00,VALID,917.152,VALID,0,VALID,98.9728,VALID,0.0169808,VALID,19.3081,VALID,187,VALID,0.0861607,
2000-11-08, 00:25:00,VALID,917.151,VALID,0,VALID,99.0059,VALID,0.0169808,VALID,19.3086,VALID,190,VALID,0.800042,
2000-11-08, 00:26:00,VALID,917.132,VALID,0,VALID,99.0555,VALID,0.0339617,VALID,19.3108,VALID,184,VALID,0.900223,
2000-11-08, 00:27:00,VALID,917.122,VALID,0,VALID,99.0745,VALID,0,VALID,19.3175,VALID,181,VALID,0.938802,
2000-11-08, 00:28:00,VALID,917.098,VALID,0,VALID,99.0923,VALID,0.0339617,VALID,19.3339,VALID,182,VALID,0.711806,
2000-11-08, 00:29:00,VALID,917.081,VALID,0,VALID,99.1025,VALID,0.0169808,VALID,19.3275,VALID,193,VALID,0.660156,
2000-11-08, 00:30:00,VALID,917.062,VALID,0,VALID,99.1089,VALID,0.0339617,VALID,19.3406,VALID,205,VALID,0.637336,
2000-11-08, 00:31:00,VALID,917.037,VALID,0,VALID,99.1063,VALID,0.0849042,VALID,19.3367,VALID,193,VALID,0.721571,
2000-11-08, 00:32:00,VALID,917.014,VALID,0,VALID,99.1127,VALID,0,VALID,19.3347,VALID,192,VALID,0.804905,
2000-11-08, 00:33:00,VALID,917,VALID,0,VALID,99.1127,VALID,-0.101885,VALID,19.322,VALID,187,VALID,0.869992,
2000-11-08, 00:34:00,VALID,916.984,VALID,0,VALID,99.1101,VALID,-0.0679233,VALID,19.3359,VALID,186,VALID,0.787723,
2000-11-08, 00:35:00,VALID,916.969,VALID,0,VALID,99.0974,VALID,-0.0849042,VALID,19.3192,VALID,184,VALID,0.485431,
2000-11-08, 00:36:00,VALID,916.954,VALID,0,VALID,99.1025,VALID,-0.0339617,VALID,19.3289,VALID,191,VALID,0.435491,
2000-11-08, 00:37:00,VALID,916.941,VALID,0,VALID,99.1038,VALID,-0.0679233,VALID,19.3393,VALID,198,VALID,0.0062934,
2000-11-08, 00:38:00,VALID,916.928,VALID,0,VALID,99.1,VALID,-0.0849042,VALID,19.3322,VALID,203,VALID,0.000801282,
2000-11-08, 00:39:00,VALID,916.925,VALID,0,VALID,99.1101,VALID,-0.0679233,VALID,19.3356,VALID,237,VALID,0.298438,
2000-11-08, 00:40:00,VALID,916.9,VALID,0,VALID,99.1038,VALID,-0.0679233,VALID,19.322,VALID,234,VALID,0.662373,
2000-11-08, 00:41:00,VALID,916.883,VALID,0,VALID,99.1025,VALID,-0.0509425,VALID,19.3284,VALID,234,VALID,0.390179,
2000-11-08, 00:42:00,VALID,916.866,VALID,0,VALID,99.1,VALID,-0.0849042,VALID,19.3287,VALID,221,VALID,0,
2000-11-08, 00:43:00,VALID,916.852,VALID,0,VALID,99.1076,VALID,-0.101885,VALID,19.3153,VALID,207,VALID,0,
2000-11-08, 00:44:00,VALID,916.846,VALID,0,VALID,99.105,VALID,-0.0169808,VALID,19.3056,VALID,204,VALID,0,
2000-11-08, 00:45:00,VALID,916.824,VALID,0,VALID,99.1254,VALID,-0.0849042,VALID,19.3063,VALID,201,VALID,0,
2000-11-08, 00:46:00,VALID,916.828,VALID,0,VALID,99.1368,VALID,-0.0679233,VALID,19.3065,VALID,190,VALID,0.467882,
2000-11-08, 00:47:00,VALID,916.822,VALID,0,VALID,99.1267,VALID,0,VALID,19.2862,VALID,187,VALID,0.468099,
2000-11-08, 00:48:00,VALID,916.823,VALID,0,VALID,99.1432,VALID,0.0339617,VALID,19.2857,VALID,177,VALID,0.474359,
2000-11-08, 00:49:00,VALID,916.822,VALID,0,VALID,99.1724,VALID,0.0169808,VALID,19.2788,VALID,165,VALID,0.68817,
2000-11-08, 00:50:00,VALID,916.81,VALID,0,VALID,99.203,VALID,0.0169808,VALID,19.2917,VALID,174,VALID,0.854941,
2000-11-08, 00:51:00,VALID,916.79,VALID,0,VALID,99.2487,VALID,0.0509425,VALID,19.3081,VALID,182,VALID,1.0692,
2000-11-08, 00:52:00,VALID,916.785,VALID,0,VALID,99.2754,VALID,0.0339617,VALID,19.3242,VALID,184,VALID,0.91276,
2000-11-08, 00:53:00,VALID,916.774,VALID,0,VALID,99.292,VALID,0.0169808,VALID,19.3173,VALID,188,VALID,0.844952,
2000-11-08, 00:54:00,VALID,916.749,VALID,0,VALID,99.2945,VALID,0.0509425,VALID,19.3401,VALID,194,VALID,0.894643,
2000-11-08, 00:55:00,VALID,916.734,VALID,0,VALID,99.3174,VALID,0.0339617,VALID,19.3464,VALID,190,VALID,0.749789,
2000-11-08, 00:56:00,VALID,916.704,VALID,0,VALID,99.3314,VALID,0.0339617,VALID,19.3565,VALID,187,VALID,0.739062,
2000-11-08, 00:57:00,VALID,916.694,VALID,0,VALID,99.3644,VALID,0.0679233,VALID,19.3762,VALID,205,VALID,0.461589,
2000-11-08, 00:58:00,VALID,916.689,VALID,0,VALID,99.3797,VALID,0.0679233,VALID,19.3819,VALID,217,VALID,0.519314,
2000-11-08, 00:59:00,VALID,916.673,VALID,0,VALID,99.3873,VALID,0.0339617,VALID,19.409,VALID,213,VALID,0.475477,
2000-11-08, 01:00:00,VALID,916.653,VALID,0,VALID,99.3772,VALID,0.0169808,VALID,19.398,VALID,215,VALID,0.587377,
2000-11-08, 01:01:00,VALID,916.658,VALID,0,VALID,99.3734,VALID,0.0169808,VALID,19.4087,VALID,206,VALID,0.43099,
2000-11-08, 01:02:00,VALID,916.63,VALID,0,VALID,99.3759,VALID,-0.0339617,VALID,19.3993,VALID,200,VALID,0.142144,
2000-11-08, 01:03:00,VALID,916.618,VALID,0,VALID,99.3746,VALID,-0.0849042,VALID,19.4002,VALID,168,VALID,0.253806,
2000-11-08, 01:04:00,VALID,916.608,VALID,0,VALID,99.367,VALID,-0.0509425,VALID,19.3901,VALID,155,VALID,0.517411,
2000-11-08, 01:05:00,VALID,916.602,VALID,0,VALID,99.3543,VALID,-0.0509425,VALID,19.3769,VALID,135,VALID,0.497044,
2000-11-08, 01:06:00,VALID,916.593,VALID,0,VALID,99.3352,VALID,-0.0509425,VALID,19.3642,VALID,137,VALID,0.542857,
2000-11-08, 01:07:00,VALID,916.583,VALID,0,VALID,99.3454,VALID,-0.0679233,VALID,19.3411,VALID,149,VALID,0.685113,
2000-11-08, 01:08:00,VALID,916.562,VALID,0,VALID,99.3505,VALID,-0.0849042,VALID,19.3446,VALID,147,VALID,0.554688,
2000-11-08, 01:09:00,VALID,916.555,VALID,0,VALID,99.3556,VALID,-0.101885,VALID,19.3446,VALID,158,VALID,0.578125,
2000-11-08, 01:10:00,VALID,916.531,VALID,0,VALID,99.3695,VALID,-0.101885,VALID,19.3384,VALID,171,VALID,0.441301,
2000-11-08, 01:11:00,VALID,916.498,VALID,0,VALID,99.3861,VALID,-0.0849042,VALID,19.358,VALID,190,VALID,0.530357,
2000-11-08, 01:12:00,VALID,916.479,VALID,0,VALID,99.414,VALID,-0.101885,VALID,19.3841,VALID,185,VALID,0.640191,
2000-11-08, 01:13:00,VALID,916.436,VALID,0,VALID,99.409,VALID,-0.0339617,VALID,19.3834,VALID,180,VALID,0.499566,
2000-11-08, 01:14:00,VALID,916.41,VALID,0,VALID,99.4166,VALID,-0.0339617,VALID,19.4194,VALID,173,VALID,0.442274,
2000-11-08, 01:15:00,VALID,916.405,VALID,0,VALID,99.4051,VALID,-0.0679233,VALID,19.4129,VALID,156,VALID,0.626234,
2000-11-08, 01:16:00,VALID,916.386,VALID,0,VALID,99.3721,VALID,-0.0509425,VALID,19.3863,VALID,151,VALID,0.736545,
2000-11-08, 01:17:00,VALID,916.386,VALID,0,VALID,99.3772,VALID,-0.0849042,VALID,19.3973,VALID,147,VALID,0.805773,
2000-11-08, 01:18:00,VALID,916.378,VALID,0,VALID,99.3683,VALID,-0.0679233,VALID,19.3868,VALID,152,VALID,0.769231,
2000-11-08, 01:19:00,VALID,916.381,VALID,0,VALID,99.3644,VALID,-0.0679233,VALID,19.3836,VALID,157,VALID,0.639509,
2000-11-08, 01:20:00,VALID,916.379,VALID,0,VALID,99.3492,VALID,-0.0679233,VALID,19.3903,VALID,165,VALID,0.605785,
2000-11-08, 01:21:00,VALID,916.374,VALID,0,VALID,99.3479,VALID,-0.101885,VALID,19.3801,VALID,177,VALID,0.501339,
2000-11-08, 01:22:00,VALID,916.368,VALID,0,VALID,99.3288,VALID,-0.0679233,VALID,19.3776,VALID,165,VALID,0.473958,
2000-11-08, 01:23:00,VALID,916.364,VALID,0,VALID,99.3187,VALID,-0.0679233,VALID,19.3642,VALID,151,VALID,0.641426,
2000-11-08, 01:24:00,VALID,916.374,VALID,0,VALID,99.3047,VALID,-0.0679233,VALID,19.3543,VALID,141,VALID,0.791518,
2000-11-08, 01:25:01,VALID,916.365,VALID,0,VALID,99.292,VALID,-0.0849042,VALID,19.3414,VALID,133,VALID,0.944046,
2000-11-08, 01:26:00,VALID,916.368,VALID,0,VALID,99.3072,VALID,-0.101885,VALID,19.3384,VALID,138,VALID,0.752679,
2000-11-08, 01:27:00,VALID,916.374,VALID,0,VALID,99.2958,VALID,-0.0679233,VALID,19.3483,VALID,153,VALID,0.531033,
2000-11-08, 01:28:00,VALID,916.368,VALID,0,VALID,99.3072,VALID,-0.101885,VALID,19.3483,VALID,164,VALID,0.580946,
2000-11-08, 01:29:00,VALID,916.379,VALID,0,VALID,99.2856,VALID,-0.0679233,VALID,19.3448,VALID,166,VALID,0.494141,
2000-11-08, 01:30:00,VALID,916.36,VALID,0,VALID,99.2996,VALID,-0.0679233,VALID,19.3287,VALID,166,VALID,0.41509,
2000-11-08, 01:31:00,VALID,916.359,VALID,0,VALID,99.3327,VALID,-0.0679233,VALID,19.3384,VALID,189,VALID,0.686632,
2000-11-08, 01:32:00,VALID,916.342,VALID,0,VALID,99.3288,VALID,-0.0509425,VALID,19.3439,VALID,195,VALID,0.792969,
2000-11-08, 01:33:00,VALID,916.313,VALID,0,VALID,99.3339,VALID,0.0169808,VALID,19.363,VALID,196,VALID,0.620192,
2000-11-08, 01:34:00,VALID,916.293,VALID,0,VALID,99.3276,VALID,0.0169808,VALID,19.3558,VALID,200,VALID,0.653125,
2000-11-08, 01:35:00,VALID,916.264,VALID,0,VALID,99.339,VALID,0.0169808,VALID,19.369,VALID,199,VALID,0.679688,
2000-11-08, 01:36:00,VALID,916.24,VALID,0,VALID,99.3288,VALID,0.0169808,VALID,19.3657,VALID,189,VALID,0.745536,
2000-11-08, 01:37:00,VALID,916.22,VALID,0,VALID,99.3365,VALID,0.0509425,VALID,19.366,VALID,198,VALID,0.508898,
2000-11-08, 01:38:00,VALID,916.207,VALID,0,VALID,99.3556,VALID,0.0339617,VALID,19.3724,VALID,217,VALID,0.549479,
2000-11-08, 01:39:00,VALID,916.186,VALID,0,VALID,99.3365,VALID,0.0339617,VALID,19.3791,VALID,197,VALID,0.532143,
2000-11-08, 01:40:01,VALID,916.165,VALID,0,VALID,99.3212,VALID,0.0339617,VALID,19.3762,VALID,199,VALID,0.554265,
2000-11-08, 01:41:00,VALID,916.155,VALID,0,VALID,99.3225,VALID,0.0169808,VALID,19.3727,VALID,194,VALID,0.55625,
2000-11-08, 01:42:00,VALID,916.15,VALID,0,VALID,99.3123,VALID,0.0339617,VALID,19.363,VALID,202,VALID,0.519748,
2000-11-08, 01:43:00,VALID,916.139,VALID,0,VALID,99.311,VALID,0.0339617,VALID,19.3523,VALID,211,VALID,0.60178,
2000-11-08, 01:44:00,VALID,916.133,VALID,0,VALID,99.3047,VALID,0.0339617,VALID,19.3565,VALID,215,VALID,0.587457,
2000-11-08, 01:45:00,VALID,916.127,VALID,0,VALID,99.306,VALID,0.0509425,VALID,19.3535,VALID,215,VALID,0.255757,
2000-11-08, 01:46:00,VALID,916.113,VALID,0,VALID,99.2958,VALID,0.0339617,VALID,19.3369,VALID,213,VALID,0,
2000-11-08, 01:47:01,VALID,916.108,VALID,0,VALID,99.3047,VALID,0,VALID,19.3106,VALID,187,VALID,0,
2000-11-08, 01:48:00,VALID,916.082,VALID,0,VALID,99.3034,VALID,0.0169808,VALID,19.3141,VALID,197,VALID,0.291266,
2000-11-08, 01:49:00,VALID,916.055,VALID,0,VALID,99.3085,VALID,0.0169808,VALID,19.3108,VALID,200,VALID,0.334087,
2000-11-08, 01:50:00,VALID,916.011,VALID,0,VALID,99.2983,VALID,0.0339617,VALID,19.3143,VALID,202,VALID,0.294975,
2000-11-08, 01:51:00,VALID,915.974,VALID,0,VALID,99.2856,VALID,0,VALID,19.2882,VALID,215,VALID,0.463839,
2000-11-08, 01:52:00,VALID,915.95,VALID,0,VALID,99.2818,VALID,0,VALID,19.2822,VALID,220,VALID,0.563585,
2000-11-08, 01:53:00,VALID,915.912,VALID,0,VALID,99.2818,VALID,0.0849042,VALID,19.2631,VALID,219,VALID,0.886018,
2000-11-08, 01:54:00,VALID,915.873,VALID,0,VALID,99.2729,VALID,0,VALID,19.2599,VALID,226,VALID,0.904018,
2000-11-08, 01:55:01,VALID,915.851,VALID,0,VALID,99.2958,VALID,0.0509425,VALID,19.2365,VALID,225,VALID,0.886613,
2000-11-08, 01:56:00,VALID,915.831,VALID,0,VALID,99.2932,VALID,0.0169808,VALID,19.2301,VALID,222,VALID,1.09799,
2000-11-08, 01:57:00,VALID,915.819,VALID,0,VALID,99.2894,VALID,0.0169808,VALID,19.234,VALID,224,VALID,0.949002,
2000-11-08, 01:58:00,VALID,915.801,VALID,0,VALID,99.2958,VALID,0.0169808,VALID,19.2179,VALID,230,VALID,0.944661,
2000-11-08, 01:59:00,VALID,915.793,VALID,0,VALID,99.2793,VALID,0.0509425,VALID,19.195,VALID,220,VALID,1.03168,
2000-11-08, 02:00:00,VALID,915.79,VALID,0,VALID,99.2856,VALID,0.0169808,VALID,19.1689,VALID,214,VALID,1.30099,
2000-11-08, 02:01:00,VALID,915.791,VALID,0,VALID,99.3098,VALID,0.0169808,VALID,19.1657,VALID,217,VALID,1.3201,
2000-11-08, 02:02:01,VALID,915.797,VALID,0,VALID,99.3047,VALID,0.0169808,VALID,19.1632,VALID,219,VALID,0.988498,
2000-11-08, 02:03:01,VALID,915.774,VALID,0,VALID,99.3288,VALID,0.0169808,VALID,19.1431,VALID,220,VALID,1.15184,
2000-11-08, 02:04:00,VALID,915.786,VALID,0,VALID,99.3441,VALID,0.0169808,VALID,19.1537,VALID,228,VALID,1.07857,
2000-11-08, 02:05:00,VALID,915.771,VALID,0,VALID,99.3479,VALID,0,VALID,19.15,VALID,230,VALID,1.07052,
2000-11-08, 02:06:00,VALID,915.776,VALID,0,VALID,99.3416,VALID,0.0169808,VALID,19.1374,VALID,226,VALID,0.899554,
2000-11-08, 02:07:01,VALID,915.773,VALID,0,VALID,99.3327,VALID,0.0169808,VALID,19.1371,VALID,231,VALID,0.877387,
2000-11-08, 02:08:00,VALID,915.781,VALID,0,VALID,99.3314,VALID,0,VALID,19.1401,VALID,222,VALID,0.772236,
2000-11-08, 02:09:01,VALID,915.779,VALID,0,VALID,99.3161,VALID,0.0169808,VALID,19.1406,VALID,217,VALID,0.743304,
2000-11-08, 02:10:01,VALID,915.783,VALID,0,VALID,99.3212,VALID,0.0169808,VALID,19.1267,VALID,211,VALID,0.660262,
2000-11-08, 02:11:01,VALID,915.786,VALID,0,VALID,99.3047,VALID,0.0339617,VALID,19.15,VALID,206,VALID,0.431473,
2000-11-08, 02:12:00,VALID,915.785,VALID,0,VALID,99.2882,VALID,0.0339617,VALID,19.153,VALID,224,VALID,0.778646,
2000-11-08, 02:13:01,VALID,915.787,VALID,0,VALID,99.2513,VALID,0,VALID,19.1473,VALID,209,VALID,0.65625,
2000-11-08, 02:14:00,VALID,915.789,VALID,0,VALID,99.2271,VALID,0,VALID,19.1496,VALID,221,VALID,0.588542,
2000-11-08, 02:15:00,VALID,915.791,VALID,0,VALID,99.2119,VALID,0,VALID,19.1567,VALID,217,VALID,0.328742,
2000-11-08, 02:16:00,VALID,915.809,VALID,0,VALID,99.1864,VALID,0,VALID,19.1498,VALID,212,VALID,0.473524,
2000-11-08, 02:17:01,VALID,915.826,VALID,0,VALID,99.1559,VALID,0.0339617,VALID,19.1431,VALID,217,VALID,0.0520833,
2000-11-08, 02:18:00,VALID,915.843,VALID,0,VALID,99.1445,VALID,0,VALID,19.1468,VALID,219,VALID,0,
2000-11-08, 02:19:00,VALID,915.852,VALID,0,VALID,99.1203,VALID,0.0339617,VALID,19.1473,VALID,214,VALID,0.148214,
2000-11-08, 02:20:00,VALID,915.865,VALID,0,VALID,99.1152,VALID,0,VALID,19.1341,VALID,214,VALID,0.263725,
2000-11-08, 02:21:00,VALID,915.874,VALID,0,VALID,99.0885,VALID,0,VALID,19.1274,VALID,215,VALID,0.369196,
2000-11-08, 02:22:00,VALID,915.87,VALID,0,VALID,99.0898,VALID,0,VALID,19.1344,VALID,206,VALID,0.648655,
2000-11-08, 02:23:00,VALID,915.873,VALID,0,VALID,99.03,VALID,0,VALID,19.115,VALID,127,VALID,0.299479,
2000-11-08, 02:24:00,VALID,915.863,VALID,0,VALID,98.9105,VALID,0.0169808,VALID,19.0469,VALID,105,VALID,0,
2000-11-08, 02:25:01,VALID,915.865,VALID,0,VALID,98.8291,VALID,0,VALID,19.0054,VALID,106,VALID,0,
2000-11-08, 02:26:00,VALID,915.846,VALID,0,VALID,98.8062,VALID,0,VALID,18.9766,VALID,107,VALID,0,
2000-11-08, 02:27:00,VALID,915.833,VALID,0,VALID,98.7528,VALID,0.0169808,VALID,18.9246,VALID,110,VALID,0,
2000-11-08, 02:28:00,VALID,915.823,VALID,0,VALID,98.7477,VALID,0.0169808,VALID,18.8986,VALID,106,VALID,0,
2000-11-08, 02:29:00,VALID,915.81,VALID,0,VALID,98.7922,VALID,0,VALID,18.8856,VALID,109,VALID,0,
2000-11-08, 02:30:00,VALID,915.791,VALID,0,VALID,98.8647,VALID,0,VALID,18.8953,VALID,116,VALID,0,
2000-11-08, 02:31:00,VALID,915.769,VALID,0,VALID,98.9715,VALID,0.0339617,VALID,18.9209,VALID,143,VALID,0,
2000-11-08, 02:32:01,VALID,915.742,VALID,0,VALID,99.0033,VALID,0.0169808,VALID,18.9569,VALID,151,VALID,0,
2000-11-08, 02:33:01,VALID,915.719,VALID,0,VALID,98.9817,VALID,0.0169808,VALID,18.9532,VALID,152,VALID,0,
2000-11-08, 02:34:00,VALID,915.695,VALID,0,VALID,98.9461,VALID,0.0339617,VALID,18.9532,VALID,149,VALID,0,
2000-11-08, 02:35:00,VALID,915.696,VALID,0,VALID,98.8507,VALID,0.0169808,VALID,18.9244,VALID,116,VALID,0,
2000-11-08, 02:36:00,VALID,915.682,VALID,0,VALID,98.8406,VALID,0,VALID,18.9045,VALID,80,VALID,0,
2000-11-08, 02:37:01,VALID,915.674,VALID,0,VALID,98.8685,VALID,0,VALID,18.9212,VALID,74,VALID,0,
2000-11-08, 02:38:00,VALID,915.672,VALID,0,VALID,98.8545,VALID,0.0339617,VALID,18.9083,VALID,74,VALID,0,
2000-11-08, 02:39:01,VALID,915.662,VALID,0,VALID,98.7375,VALID,0,VALID,18.8536,VALID,86,VALID,0,
2000-11-08, 02:40:01,VALID,915.663,VALID,0,VALID,98.5989,VALID,0,VALID,18.7823,VALID,88,VALID,0.344806,
2000-11-08, 02:41:01,VALID,915.66,VALID,0,VALID,98.6587,VALID,0.0169808,VALID,18.7622,VALID,86,VALID,0.606473,
2000-11-08, 02:42:00,VALID,915.662,VALID,0,VALID,98.7388,VALID,0.0339617,VALID,18.7527,VALID,87,VALID,0.761719,
2000-11-08, 02:43:01,VALID,915.674,VALID,0,VALID,98.7655,VALID,0.0169808,VALID,18.747,VALID,95,VALID,0.878689,
2000-11-08, 02:44:00,VALID,915.677,VALID,0,VALID,98.8342,VALID,0.0509425,VALID,18.7306,VALID,95,VALID,0.695964,
2000-11-08, 02:45:00,VALID,915.691,VALID,0,VALID,98.8876,VALID,0.0169808,VALID,18.7115,VALID,107,VALID,0.706209,
2000-11-08, 02:46:00,VALID,915.69,VALID,0,VALID,98.9245,VALID,0,VALID,18.6918,VALID,109,VALID,0.768229,
2000-11-08, 02:47:01,VALID,915.69,VALID,0,VALID,98.9703,VALID,0,VALID,18.6891,VALID,105,VALID,0.73546,
2000-11-08, 02:48:00,VALID,915.695,VALID,0,VALID,98.9919,VALID,0,VALID,18.6665,VALID,105,VALID,0.596755,
2000-11-08, 02:49:00,VALID,915.705,VALID,0,VALID,99.0211,VALID,0,VALID,18.6533,VALID,104,VALID,0.63683,
2000-11-08, 02:50:00,VALID,915.712,VALID,0,VALID,99.0287,VALID,0,VALID,18.6146,VALID,101,VALID,0.676943,
2000-11-08, 02:51:00,VALID,915.72,VALID,0,VALID,99.0364,VALID,0.0169808,VALID,18.5954,VALID,97,VALID,0.489509,
2000-11-08, 02:52:00,VALID,915.734,VALID,0,VALID,99.0707,VALID,0,VALID,18.5726,VALID,73,VALID,0.590712,
2000-11-08, 02:53:00,VALID,915.748,VALID,0,VALID,99.1089,VALID,0,VALID,18.5726,VALID,61,VALID,0.660256,
2000-11-08, 02:54:00,VALID,915.751,VALID,0,VALID,99.1546,VALID,0.0169808,VALID,18.5557,VALID,61,VALID,0.484152,
2000-11-08, 02:55:01,VALID,915.755,VALID,0,VALID,99.2017,VALID,0,VALID,18.5723,VALID,61,VALID,0.266892,
2000-11-08, 02:56:00,VALID,915.764,VALID,0,VALID,99.2437,VALID,0.0169808,VALID,18.6016,VALID,62,VALID,0,
2000-11-08, 02:57:00,VALID,915.749,VALID,0,VALID,99.306,VALID,0,VALID,18.6374,VALID,59,VALID,0.0188802,
2000-11-08, 02:58:00,VALID,915.747,VALID,0,VALID,99.3416,VALID,0.0169808,VALID,18.6695,VALID,45,VALID,0.236979,
2000-11-08, 02:59:00,VALID,915.737,VALID,0,VALID,99.3568,VALID,0.0169808,VALID,18.6889,VALID,29,VALID,0.257595,
2000-11-08, 03:00:00,VALID,915.736,VALID,0,VALID,99.3886,VALID,0.0169808,VALID,18.7055,VALID,39,VALID,0.623766,
2000-11-08, 03:01:00,VALID,915.723,VALID,0,VALID,99.3937,VALID,-0.0169808,VALID,18.6953,VALID,46,VALID,0.261719,
2000-11-08, 03:02:01,VALID,915.72,VALID,0,VALID,99.395,VALID,0.0169808,VALID,18.6789,VALID,46,VALID,0,
2000-11-08, 03:03:01,VALID,915.691,VALID,0,VALID,99.4229,VALID,0.0169808,VALID,18.7117,VALID,48,VALID,0,
2000-11-08, 03:04:00,VALID,915.689,VALID,0,VALID,99.4369,VALID,0,VALID,18.7182,VALID,49,VALID,0,
2000-11-08, 03:05:01,VALID,915.67,VALID,0,VALID,99.4306,VALID,0,VALID,18.7115,VALID,50,VALID,0,
2000-11-08, 03:06:01,VALID,915.66,VALID,0,VALID,99.4077,VALID,0.0169808,VALID,18.6757,VALID,50,VALID,0,
2000-11-08, 03:07:01,VALID,915.656,VALID,0,VALID,99.409,VALID,0,VALID,18.6665,VALID,85,VALID,0,
2000-11-08, 03:08:00,VALID,915.651,VALID,0,VALID,99.4306,VALID,0,VALID,18.6531,VALID,102,VALID,0,
2000-11-08, 03:09:01,VALID,915.647,VALID,0,VALID,99.428,VALID,0.0339617,VALID,18.66,VALID,102,VALID,0,
2000-11-08, 03:10:01,VALID,915.652,VALID,0,VALID,99.4598,VALID,0,VALID,18.6697,VALID,109,VALID,0,
2000-11-08, 03:11:01,VALID,915.667,VALID,0,VALID,99.4903,VALID,-0.0169808,VALID,18.6859,VALID,133,VALID,0,
2000-11-08, 03:12:00,VALID,915.686,VALID,0,VALID,99.4929,VALID,0,VALID,18.7018,VALID,143,VALID,0.105469,
2000-11-08, 03:13:01,VALID,915.692,VALID,0,VALID,99.4929,VALID,0,VALID,18.7085,VALID,161,VALID,0.648438,
2000-11-08, 03:14:00,VALID,915.701,VALID,0,VALID,99.5005,VALID,0,VALID,18.705,VALID,166,VALID,0.496311,
2000-11-08, 03:15:01,VALID,915.704,VALID,0,VALID,99.5069,VALID,-0.0169808,VALID,18.7147,VALID,158,VALID,0.527755,
2000-11-08, 03:16:01,VALID,915.696,VALID,0,VALID,99.5132,VALID,-0.0169808,VALID,18.7184,VALID,167,VALID,0.605903,
2000-11-08, 03:17:01,VALID,915.692,VALID,0,VALID,99.5043,VALID,-0.0169808,VALID,18.7184,VALID,179,VALID,0.615234,
2000-11-08, 03:18:00,VALID,915.684,VALID,0,VALID,99.4878,VALID,-0.0169808,VALID,18.6951,VALID,199,VALID,0.630008,
2000-11-08, 03:19:01,VALID,915.658,VALID,0,VALID,99.4853,VALID,0.0169808,VALID,18.6926,VALID,208,VALID,0.723214,
2000-11-08, 03:20:01,VALID,915.641,VALID,0,VALID,99.498,VALID,0,VALID,18.6829,VALID,223,VALID,0.809755,
2000-11-08, 03:21:01,VALID,915.628,VALID,0,VALID,99.5183,VALID,-0.0169808,VALID,18.6988,VALID,230,VALID,0.920759,
2000-11-08, 03:22:01,VALID,915.624,VALID,0,VALID,99.5196,VALID,-0.0169808,VALID,18.7018,VALID,229,VALID,0.682509,
2000-11-08, 03:23:01,VALID,915.623,VALID,0,VALID,99.5272,VALID,0,VALID,18.7052,VALID,237,VALID,0.774639,
2000-11-08, 03:24:01,VALID,915.625,VALID,0,VALID,99.5209,VALID,0,VALID,18.6985,VALID,238,VALID,0.789509,
2000-11-08, 03:25:01,VALID,915.639,VALID,0,VALID,99.5247,VALID,0.0169808,VALID,18.699,VALID,233,VALID,0.599451,
2000-11-08, 03:26:01,VALID,915.644,VALID,0,VALID,99.5425,VALID,-0.0169808,VALID,18.7018,VALID,239,VALID,0.671652,
2000-11-08, 03:27:01,VALID,915.651,VALID,0,VALID,99.5488,VALID,0,VALID,18.7048,VALID,242,VALID,0.68099,
2000-11-08, 03:28:01,VALID,915.658,VALID,0,VALID,99.5616,VALID,0,VALID,18.7211,VALID,241,VALID,0.615017,
2000-11-08, 03:29:01,VALID,915.661,VALID,0,VALID,99.5666,VALID,0,VALID,18.744,VALID,236,VALID,0.457248,
2000-11-08, 03:30:01,VALID,915.686,VALID,0,VALID,99.5921,VALID,-0.0169808,VALID,18.7408,VALID,243,VALID,0.150082,
2000-11-08, 03:31:01,VALID,915.673,VALID,0,VALID,99.601,VALID,0,VALID,18.7534,VALID,240,VALID,0,
2000-11-08, 03:32:01,VALID,915.683,VALID,0,VALID,99.5997,VALID,-0.0169808,VALID,18.7664,VALID,240,VALID,0,
2000-11-08, 03:33:01,VALID,915.689,VALID,0,VALID,99.6022,VALID,0,VALID,18.7763,VALID,240,VALID,0,
2000-11-08, 03:34:01,VALID,915.702,VALID,0,VALID,99.6099,VALID,-0.0169808,VALID,18.7761,VALID,240,VALID,0,
2000-11-08, 03:35:01,VALID,915.693,VALID,0,VALID,99.6124,VALID,-0.0339617,VALID,18.786,VALID,240,VALID,0,